Weather History for Drummond Island, MI

Change the Weather History Date:

Thursday, February 6, 2014

  Actual Average (KCIU) Record (KCIU)
Temperature  
Mean Temperature 8 °F -  
Max Temperature 14 °F 24 °F 46 °F (2005)
Min Temperature 2 °F 1 °F -18 °F (1989)
Degree Days  
Heating Degree Days 57    
Moisture  
Dew Point 3 °F    
Average Humidity 77    
Maximum Humidity 85    
Minimum Humidity 65    
Precipitation  
Precipitation 0.00 in - - ()
Sea Level Pressure  
Sea Level Pressure 30.14 in    
Wind  
Wind Speed 4 mph (WSW)    
Max Wind Speed 14 mph    
Max Gust Speed 21 mph    
Visibility 8 miles    
Events Snow    
Averages and records for this station are not official NWS values.
T = Trace of Precipitation, MM = Missing Value Source: NWS Daily Summary

Daily Weather History Graph

Daily Weather History Graph

Search for Another Location

Airport:

Trip Planner

Search our weather history database for the weather conditions in past years. The results will help you decide how hot, cold, wet, or windy it might be!

Date:

Astronomy

Feb. 06, 2014 Rise Set
Actual Time 7:50 AM EST 5:47 PM EST
Civil Twilight 7:19 AM EST 6:19 PM EST
Nautical Twilight 6:43 AM EST 6:54 PM EST
Astronomical Twilight 6:09 AM EST 7:29 PM EST
Moon 11:18 AM EST (2/6) 1:05 AM EST (2/6)
Length of Visible Light 10h 59m
Length of Day
9h 57m
Waxing Crescent, 49% of the Moon is Illuminated
Feb 6
Waxing Crescent
Feb 6
First Quarter
Feb 14
Full
Feb 22
Last Quarter
Mar 1
New

Hourly Weather History & Observations

Time (EST) Temp. Windchill Dew Point Humidity Pressure Visibility Wind Dir Wind Speed Gust Speed Precip Events Conditions
12:17 AM 3.7 °F -3.6 °F -0.8 °F 82% 30.27 in 10.0 mi WNW 3.5 mph - N/A   Scattered Clouds
12:38 AM 3.6 °F -3.8 °F -0.9 °F 82% 30.27 in 10.0 mi WSW 3.5 mph - N/A   Scattered Clouds
12:57 AM 2.8 °F - -1.3 °F 83% 30.27 in 10.0 mi Calm Calm - N/A   Mostly Cloudy
1:17 AM 4.1 °F - -0.6 °F 81% 30.27 in 10.0 mi Calm Calm - N/A   Mostly Cloudy
1:38 AM 3.7 °F - -0.6 °F 82% 30.26 in 10.0 mi Calm Calm - N/A   Overcast
1:57 AM 4.8 °F -2.3 °F -0.0 °F 80% 30.26 in 10.0 mi West 3.5 mph - N/A   Overcast
2:17 AM 4.6 °F - -0.4 °F 80% 30.26 in 10.0 mi Calm Calm - N/A   Overcast
2:38 AM 4.5 °F -2.7 °F -0.4 °F 80% 30.25 in 10.0 mi West 3.5 mph - N/A   Overcast
2:57 AM 3.9 °F -3.4 °F -0.9 °F 80% 30.25 in 10.0 mi WSW 3.5 mph - N/A   Overcast
3:17 AM 3.2 °F -4.2 °F -1.3 °F 82% 30.24 in 10.0 mi West 3.5 mph - N/A   Overcast
3:38 AM 2.8 °F -4.6 °F -1.3 °F 83% 30.24 in 10.0 mi WSW 3.5 mph - N/A   Overcast
3:57 AM 2.8 °F -4.6 °F -1.3 °F 83% 30.23 in 10.0 mi WSW 3.5 mph - N/A   Overcast
4:17 AM 3.2 °F -4.2 °F -1.3 °F 82% 30.23 in 10.0 mi WSW 3.5 mph - N/A   Overcast
4:37 AM 4.5 °F -2.7 °F -0.2 °F 81% 30.23 in 10.0 mi West 3.5 mph - N/A   Overcast
4:57 AM 5.2 °F -1.9 °F 0.5 °F 81% 30.23 in 10.0 mi West 3.5 mph - N/A   Overcast
5:17 AM 5.7 °F -3.2 °F 0.5 °F 79% 30.22 in 10.0 mi West 4.6 mph - N/A   Overcast
5:37 AM 5.9 °F -1.1 °F 1.2 °F 81% 30.22 in 10.0 mi West 3.5 mph - N/A   Overcast
5:57 AM 5.9 °F -1.1 °F 1.4 °F 82% 30.21 in 10.0 mi WSW 3.5 mph - N/A   Overcast
6:17 AM 6.4 °F - 2.1 °F 82% 30.21 in 10.0 mi Calm Calm - N/A   Overcast
6:38 AM 6.6 °F -2.2 °F 1.9 °F 81% 30.21 in 10.0 mi WSW 4.6 mph - N/A   Overcast
6:57 AM 6.6 °F -0.3 °F 1.9 °F 81% 30.21 in 10.0 mi WSW 3.5 mph - N/A   Overcast
7:17 AM 6.4 °F -3.9 °F 1.8 °F 81% 30.22 in 10.0 mi WSW 5.8 mph - N/A   Overcast
7:37 AM 6.6 °F -3.7 °F 1.8 °F 80% 30.21 in 10.0 mi West 5.8 mph - N/A   Overcast
7:57 AM 6.6 °F - 1.6 °F 80% 30.21 in 10.0 mi Calm Calm - N/A   Overcast
8:18 AM 6.8 °F - 1.2 °F 78% 30.21 in 10.0 mi Calm Calm - N/A   Overcast
8:37 AM 7.3 °F - 1.4 °F 77% 30.20 in 10.0 mi Calm Calm - N/A   Overcast
8:57 AM 7.3 °F - 1.4 °F 77% 30.20 in 10.0 mi Calm Calm - N/A   Overcast
9:18 AM 8.2 °F 1.6 °F 1.6 °F 74% 30.20 in 10.0 mi West 3.5 mph - N/A Snow Light Snow
9:37 AM 8.6 °F 2.0 °F 2.1 °F 75% 30.19 in 5.0 mi West 3.5 mph - N/A Snow Light Snow
9:57 AM 8.6 °F - 3.0 °F 78% 30.18 in 1.5 mi Calm Calm - N/A Snow Light Snow
10:17 AM 8.6 °F - 3.0 °F 78% 30.18 in 5.0 mi Calm Calm - N/A Snow Light Snow
10:37 AM 10.8 °F -1.1 °F 4.5 °F 76% 30.17 in 10.0 mi WSW 8.1 mph - N/A Snow Light Snow
10:58 AM 12.9 °F 0.7 °F 5.0 °F 71% 30.17 in 4.0 mi WSW 9.2 mph - N/A Snow Light Snow
11:17 AM 12.2 °F 0.7 °F 5.0 °F 73% 30.16 in 10.0 mi SW 8.1 mph - N/A Snow Light Snow
11:37 AM 12.7 °F 2.4 °F 5.2 °F 72% 30.16 in 7.0 mi WSW 6.9 mph - N/A Snow Light Snow
11:58 AM 13.6 °F 4.6 °F 5.5 °F 70% 30.15 in 5.0 mi WSW 5.8 mph - N/A Snow Light Snow
12:17 PM 14.9 °F 4.0 °F 5.2 °F 65% 30.14 in 7.0 mi West 8.1 mph - N/A Snow Light Snow
12:38 PM 13.1 °F 0.1 °F 5.0 °F 70% 30.13 in 10.0 mi WSW 10.4 mph 16.1 mph N/A Snow Light Snow
12:57 PM 12.9 °F -2.2 °F 4.5 °F 69% 30.12 in 7.0 mi WSW 13.8 mph 19.6 mph N/A   Overcast
1:17 PM 12.9 °F 0.7 °F 5.0 °F 71% 30.11 in 10.0 mi West 9.2 mph - N/A   Overcast
1:38 PM 13.1 °F -0.7 °F 5.4 °F 71% 30.10 in 7.0 mi WSW 11.5 mph - N/A   Overcast
1:57 PM 12.7 °F 1.4 °F 4.8 °F 71% 30.10 in 10.0 mi West 8.1 mph 17.3 mph N/A   Overcast
2:17 PM 13.1 °F 1.8 °F 5.7 °F 72% 30.09 in 10.0 mi West 8.1 mph - N/A Snow Light Snow
2:38 PM 13.1 °F 4.0 °F 5.9 °F 73% 30.08 in 4.0 mi WSW 5.8 mph - N/A Snow Light Snow
2:57 PM 13.1 °F 0.9 °F 6.1 °F 74% 30.08 in 3.0 mi WSW 9.2 mph - N/A Snow Light Snow
3:17 PM 13.3 °F 4.2 °F 5.7 °F 72% 30.08 in 5.0 mi West 5.8 mph 17.3 mph N/A Snow Light Snow
3:38 PM 13.3 °F -1.1 °F 5.0 °F 70% 30.08 in 10.0 mi West 12.7 mph 20.7 mph N/A   Overcast
3:57 PM 13.1 °F 4.0 °F 5.7 °F 72% 30.08 in 5.0 mi WSW 5.8 mph - N/A Snow Light Snow
4:17 PM 12.9 °F 1.6 °F 5.9 °F 74% 30.07 in 4.0 mi West 8.1 mph - N/A Snow Light Snow
4:37 PM 12.9 °F 5.2 °F 7.3 °F 78% 30.07 in 1.5 mi WSW 4.6 mph - N/A Snow Light Snow
4:57 PM 13.1 °F 5.4 °F 7.5 °F 78% 30.06 in 2.5 mi WSW 4.6 mph - N/A Snow Light Snow
5:18 PM 12.6 °F 3.4 °F 7.2 °F 79% 30.06 in 3.0 mi West 5.8 mph - N/A Snow Light Snow
5:37 PM 12.2 °F 1.7 °F 5.9 °F 76% 30.06 in 7.0 mi WSW 6.9 mph - N/A Snow Light Snow
5:57 PM 12.4 °F 0.0 °F 4.8 °F 72% 30.06 in 10.0 mi WSW 9.2 mph 16.1 mph N/A   Overcast
6:18 PM 12.6 °F -0.6 °F 5.0 °F 72% 30.06 in 10.0 mi WSW 10.4 mph 16.1 mph N/A   Overcast
6:37 PM 12.4 °F -0.8 °F 5.2 °F 73% 30.05 in 10.0 mi WSW 10.4 mph 16.1 mph N/A   Overcast
6:57 PM 12.2 °F -1.0 °F 5.2 °F 73% 30.05 in 7.0 mi WSW 10.4 mph 16.1 mph N/A   Overcast
7:18 PM 12.6 °F -0.6 °F 5.0 °F 72% 30.05 in 10.0 mi WSW 10.4 mph 16.1 mph N/A   Overcast
7:37 PM 12.6 °F -0.6 °F 5.2 °F 72% 30.05 in 10.0 mi WSW 10.4 mph 16.1 mph N/A   Overcast
7:57 PM 12.4 °F 0.0 °F 5.5 °F 74% 30.05 in 10.0 mi WSW 9.2 mph 17.3 mph N/A   Overcast
8:18 PM 12.2 °F 0.7 °F 5.7 °F 75% 30.04 in 10.0 mi WSW 8.1 mph - N/A   Overcast
8:37 PM 12.4 °F -0.8 °F 5.9 °F 75% 30.04 in 7.0 mi WSW 10.4 mph 18.4 mph N/A Snow Light Snow
8:58 PM 12.2 °F -1.0 °F 5.9 °F 76% 30.05 in 7.0 mi WSW 10.4 mph - N/A Snow Light Snow
9:17 PM 12.6 °F 1.1 °F 5.9 °F 75% 30.04 in 10.0 mi WSW 8.1 mph - N/A Snow Light Snow
9:37 PM 11.7 °F 1.1 °F 6.8 °F 81% 30.04 in 2.0 mi West 6.9 mph - N/A Snow Light Snow
9:57 PM 11.3 °F 3.3 °F 7.5 °F 85% 30.04 in 1.0 mi West 4.6 mph - N/A Snow Snow
10:17 PM 11.3 °F 1.9 °F 7.3 °F 84% 30.04 in 1.0 mi West 5.8 mph - N/A Snow Light Snow
10:38 PM 11.5 °F 3.5 °F 7.3 °F 83% 30.04 in 1.5 mi WSW 4.6 mph - N/A Snow Light Snow
10:57 PM 11.8 °F 1.3 °F 6.1 °F 78% 30.03 in 5.0 mi West 6.9 mph - N/A Snow Light Snow
11:17 PM 12.2 °F 1.7 °F 4.1 °F 70% 30.03 in 10.0 mi West 6.9 mph - N/A   Overcast
11:38 PM 12.2 °F 4.3 °F 3.7 °F 69% 30.02 in 10.0 mi West 4.6 mph - N/A   Overcast
11:57 PM 12.2 °F 2.9 °F 3.4 °F 68% 30.03 in 10.0 mi West 5.8 mph - N/A   Overcast